Location: Montbazon
(47.2835°N, 0.6999°E)
Time: 17:31:59
(UTC+00:00)

Cosmos 1703 Rocket - Pass Details

Date: 08 November 2025
Orbit: 599 x 625 km, 82.5° (Epoch: 10 December)

Event Time Altitude Azimuth Distance (km) Brightness Sun altitude
Rises 05:10:32 0° 196° (SSW) 2,853 6.9 -17.2°
Reaches altitude 10° 05:12:45 10° 200° (SSW) 1,958 6.0 -16.9°
Maximum altitude 05:17:02 62° 281° (WNW) 692 3.5 -16.1°
Drops below altitude 10° 05:21:24 10° 3° (N) 1,990 6.1 -15.4°
Sets 05:23:41 0° 7° (N) 2,905 7.0 -15.0°
